| time (UTC) | temp F | wind direction | speed knots | gust knots | rain 1hr in | rain 24hr in | rain mn in | humidity % | barometer mb |
| 20260506174514 | 56 | 301 | 1.7 | 5.2 | 0.00 | 0.01 | 0.01 | 72 | 1015.8 |
| 20260506173000 | 56 | 301 | 2.6 | 7.0 | 0.00 | 0.01 | 0.01 | 66 | 1015.8 |
| 20260506171551 | 57 | 301 | 2.6 | 6.1 | 0.00 | 0.01 | 0.01 | 63 | 1015.6 |
| 20260506170041 | 58 | 301 | 3.5 | 7.0 | 0.00 | 0.01 | 0.01 | 61 | 1015.6 |
| 20260506164533 | 57 | 301 | 2.6 | 7.0 | 0.00 | 0.01 | 0.01 | 63 | 1015.6 |
| 20260506163019 | 58 | 301 | 2.6 | 8.7 | 0.00 | 0.01 | 0.01 | 63 | 1015.6 |
| 20260506161509 | 57 | 301 | 3.5 | 7.8 | 0.00 | 0.01 | 0.01 | 62 | 1015.6 |
| 20260506160057 | 60 | 301 | 2.6 | 8.7 | 0.00 | 0.18 | 0.01 | 61 | 1015.6 |
| 20260506154548 | 59 | 301 | 2.6 | 7.8 | 0.00 | 0.18 | 0.01 | 62 | 1015.6 |
| 20260506153027 | 59 | 301 | 3.5 | 10.4 | 0.00 | 0.18 | 0.01 | 59 | 1015.5 |
| 20260506151517 | 59 | 301 | 2.6 | 7.8 | 0.00 | 0.18 | 0.01 | 61 | 1015.6 |
| 20260506150009 | 58 | 301 | 3.5 | 8.7 | 0.00 | 0.33 | 0.01 | 62 | 1015.8 |
| 20260506144507 | 59 | 301 | 2.6 | 8.7 | 0.00 | 0.33 | 0.01 | 62 | 1015.8 |
| 20260506143047 | 58 | 301 | 3.5 | 8.7 | 0.00 | 0.33 | 0.01 | 63 | 1016.0 |
| 20260506141537 | 57 | 301 | 3.5 | 10.4 | 0.00 | 0.33 | 0.01 | 61 | 1016.1 |
| 20260506140024 | 59 | 301 | 3.5 | 10.4 | 0.00 | 0.33 | 0.01 | 62 | 1016.2 |
| 20260506134515 | 59 | 300 | 4.3 | 12.2 | 0.00 | 0.33 | 0.01 | 58 | 1016.3 |
| 20260506133053 | 59 | 301 | 2.6 | 9.6 | 0.00 | 0.33 | 0.01 | 60 | 1016.2 |
| 20260506131527 | 58 | 300 | 3.5 | 9.6 | 0.00 | 0.33 | 0.01 | 59 | 1016.4 |
| 20260506130020 | 58 | 300 | 0.9 | 7.0 | 0.00 | 0.33 | 0.01 | 64 | 1016.5 |
| 20260506124508 | 58 | 301 | 2.6 | 11.3 | 0.00 | 0.33 | 0.01 | 65 | 1016.4 |
| 20260506123057 | 57 | 301 | 5.2 | 10.4 | 0.00 | 0.33 | 0.01 | 62 | 1016.5 |
| 20260506121539 | 56 | 301 | 1.7 | 10.4 | 0.00 | 0.33 | 0.01 | 67 | 1016.5 |
| 20260506120028 | 55 | 300 | 4.3 | 11.3 | 0.00 | 0.33 | 0.01 | 68 | 1016.5 |
| 20260506114517 | 55 | 300 | 2.6 | 12.2 | 0.00 | 0.33 | 0.01 | 67 | 1016.5 |
| 20260506113005 | 55 | 301 | 4.3 | 10.4 | 0.00 | 0.33 | 0.01 | 66 | 1016.6 |
| 20260506111558 | 55 | 300 | 2.6 | 10.4 | 0.00 | 0.33 | 0.01 | 66 | 1016.6 |
| 20260506110043 | 54 | 300 | 2.6 | 16.5 | 0.00 | 0.33 | 0.01 | 68 | 1016.7 |
| 20260506104530 | 55 | 301 | 4.3 | 8.7 | 0.00 | 0.33 | 0.01 | 69 | 1016.6 |
| 20260506103018 | 54 | 301 | 2.6 | 10.4 | 0.00 | 0.33 | 0.01 | 70 | 1016.7 |
| 20260506101503 | 54 | 301 | 4.3 | 11.3 | 0.00 | 0.33 | 0.01 | 71 | 1016.6 |
| 20260506100051 | 53 | 301 | 3.5 | 9.6 | 0.00 | 0.33 | 0.01 | 71 | 1016.7 |
| 20260506094536 | 52 | 301 | 4.3 | 8.7 | 0.00 | 0.33 | 0.01 | 70 | 1016.9 |
| 20260506093023 | 51 | 301 | 5.2 | 12.2 | 0.00 | 0.33 | 0.01 | 72 | 1017.0 |
| 20260506091505 | 51 | 301 | 3.5 | 10.4 | 0.00 | 0.33 | 0.01 | 75 | 1016.7 |
| 20260506090040 | 50 | 301 | 4.3 | 9.6 | 0.00 | 0.33 | 0.01 | 77 | 1016.6 |
| 20260506084534 | 49 | 301 | 4.3 | 14.8 | 0.00 | 0.33 | 0.01 | 78 | 1016.4 |
| 20260506083012 | 48 | 301 | 5.2 | 12.2 | 0.00 | 0.33 | 0.01 | 79 | 1016.3 |
| 20260506081558 | 48 | 301 | 6.1 | 11.3 | 0.00 | 0.33 | 0.01 | 81 | 1016.2 |
| 20260506080103 | 47 | 301 | 7.0 | 14.8 | 0.00 | 0.33 | 0.01 | 81 | 1016.0 |
| 20260506073023 | 45 | 301 | 6.1 | 12.2 | 0.00 | 0.33 | 0.01 | 84 | 1015.9 |
| 20260506071517 | 45 | 301 | 4.3 | 8.7 | 0.00 | 0.33 | 0.01 | 87 | 1015.7 |
| 20260506061529 | 42 | 301 | 6.1 | 13.9 | 0.00 | 0.33 | 0.01 | 90 | 1015.6 |
| 20260506044535 | 42 | 301 | 6.1 | 10.4 | 0.00 | 0.33 | 0.01 | 88 | 1015.2 |
| 20260506043017 | 42 | 302 | 4.3 | 12.2 | 0.00 | 0.33 | 0.01 | 86 | 1015.1 |
| 20260506041503 | 43 | 302 | 4.3 | 12.2 | 0.00 | 0.33 | 0.01 | 86 | 1014.9 |
| 20260506040050 | 42 | 302 | 5.2 | 11.3 | 0.00 | 0.33 | 0.01 | 87 | 1015.0 |
| 20260506034549 | 42 | 302 | 6.1 | 12.2 | 0.00 | 0.33 | 0.01 | 88 | 1015.0 |
| 20260506033020 | 43 | 302 | 4.3 | 12.2 | 0.00 | 0.33 | 0.01 | 87 | 1015.0 |
| 20260506031513 | 43 | 302 | 5.2 | 10.4 | 0.00 | 0.33 | 0.01 | 88 | 1015.0 |
| 20260506030103 | 43 | 302 | 6.1 | 11.3 | 0.00 | 0.33 | 0.01 | 86 | 1015.0 |
| 20260506024545 | 44 | 302 | 3.5 | 8.7 | 0.00 | 0.33 | 0.01 | 84 | 1014.9 |
| 20260506023025 | 45 | 302 | 5.2 | 9.6 | 0.00 | 0.33 | 0.01 | 80 | 1014.8 |
| 20260506021517 | 45 | 302 | 4.3 | 10.4 | 0.00 | 0.33 | 0.01 | 81 | 1015.0 |
| 20260506020008 | 44 | 302 | 5.2 | 9.6 | 0.00 | 0.33 | 0.01 | 83 | 1015.0 |
| 20260506014557 | 44 | 302 | 1.7 | 10.4 | 0.00 | 0.33 | 0.01 | 86 | 1015.1 |
| 20260506013024 | 44 | 302 | 4.3 | 8.7 | 0.00 | 0.33 | 0.01 | 86 | 1015.0 |
| 20260506011534 | 45 | 302 | 3.5 | 9.6 | 0.00 | 0.33 | 0.01 | 84 | 1015.1 |
| 20260506010120 | 45 | 302 | 5.2 | 10.4 | 0.00 | 0.33 | 0.01 | 84 | 1015.1 |
| 20260506004548 | 46 | 302 | 1.7 | 8.7 | 0.00 | 0.33 | 0.01 | 83 | 1015.6 |
| 20260506003045 | 47 | 302 | 0.9 | 6.1 | 0.00 | 0.33 | 0.01 | 80 | 1015.8 |
| 20260506001536 | 47 | 302 | 6.1 | 12.2 | 0.00 | 0.33 | 0.01 | 79 | 1015.8 |
| 20260506000020 | 47 | 302 | 3.5 | 9.6 | 0.00 | 0.33 | 0.01 | 78 | 1015.8 |
| 20260505234509 | 47 | 302 | 1.7 | 5.2 | 0.00 | 0.33 | 0.01 | 77 | 1015.8 |
| 20260505233056 | 48 | 302 | 3.5 | 10.4 | 0.00 | 0.33 | 0.01 | 76 | 1015.9 |
| 20260505231546 | 48 | 302 | 3.5 | 7.8 | 0.01 | 0.33 | 0.01 | 74 | 1015.6 |
| 20260505230036 | 48 | 302 | 3.5 | 8.7 | 0.01 | 0.33 | 0.01 | 74 | 1015.6 |
| 20260505224524 | 48 | 302 | 1.7 | 11.3 | 0.01 | 0.33 | 0.01 | 75 | 1015.6 |
| 20260505223017 | 48 | 302 | 5.2 | 12.2 | 0.01 | 0.33 | 0.01 | 75 | 1015.6 |
| 20260505221535 | 47 | 302 | 2.6 | 7.8 | 0.00 | 0.32 | 0.00 | 81 | 1015.5 |
| 20260505220041 | 45 | 302 | 2.6 | 8.7 | 0.00 | 0.32 | 0.32 | 89 | 1015.9 |
| 20260505214516 | 46 | 302 | 2.6 | 13.9 | 0.00 | 0.32 | 0.32 | 91 | 1016.5 |
| 20260505213053 | 47 | 301 | 3.5 | 9.6 | 0.00 | 0.32 | 0.32 | 95 | 1016.7 |
| 20260505211547 | 48 | 301 | 1.7 | 5.2 | 0.00 | 0.32 | 0.32 | 96 | 1016.6 |
| 20260505210028 | 48 | 301 | 2.6 | 11.3 | 0.00 | 0.32 | 0.32 | 95 | 1016.4 |
| 20260505204519 | 48 | 301 | 2.6 | 9.6 | 0.00 | 0.32 | 0.32 | 94 | 1016.2 |
| 20260505203010 | 48 | 301 | 3.5 | 9.6 | 0.00 | 0.32 | 0.32 | 94 | 1016.0 |
| 20260505201559 | 49 | 301 | 3.5 | 8.7 | 0.00 | 0.32 | 0.32 | 92 | 1015.7 |
| 20260505201501 | 49 | 301 | 5.2 | 8.7 | 0.00 | 0.32 | 0.32 | 92 | 1015.7 |
| 20260505200055 | 49 | 301 | 2.6 | 7.0 | 0.00 | 0.41 | 0.32 | 85 | 1015.4 |
| 20260505194556 | 49 | 301 | 2.6 | 7.0 | 0.00 | 0.41 | 0.32 | 85 | 1015.4 |
| 20260505193034 | 48 | 301 | 3.5 | 8.7 | 0.00 | 0.41 | 0.32 | 84 | 1015.1 |
| 20260505190006 | 48 | 301 | 1.7 | 4.3 | 0.00 | 0.65 | 0.32 | 86 | 1014.8 |
| 20260505184557 | 47 | 301 | 0.9 | 1.7 | 0.00 | 0.65 | 0.32 | 89 | 1014.7 |
| 20260505183052 | 48 | 301 | 0.0 | 3.5 | 0.00 | 0.65 | 0.32 | 88 | 1014.8 |
| 20260505181535 | 48 | 301 | 2.6 | 6.1 | 0.00 | 0.65 | 0.32 | 91 | 1014.7 |
| 20260505180025 | 48 | 301 | 0.0 | 3.5 | 0.00 | 0.65 | 0.32 | 94 | 1015.2 |